Location: Karcze
(52.0945°N, 22.4786°E)
Time: 19:29:41
(UTC+00:00)

Transit 2A Rocket - Pass Details

Date: 03 August 2021
Orbit: 586 x 917 km, 66.7° (Epoch: 27 September)

Event Time Altitude Azimuth Distance (km) Brightness Sun altitude
Rises 14:09:53 0° 256° (WSW) 2,925 9.0 35.8°
Reaches altitude 10° 14:12:21 10° 269° (W) 2,063 8.5 35.4°
Maximum altitude 14:16:25 29° 329° (NNW) 1,271 6.6 34.8°
Drops below altitude 10° 14:20:50 10° 29° (NNE) 2,249 7.2 34.2°
Sets 14:23:38 0° 41° (NE) 3,239 7.8 33.8°
